Location: Eschenbach
(49.7554°N, 11.8331°E)
Time: 07:01:21
(UTC+00:00)

Daily predictions for brighter satellites

Satellite Brightness Start Highest point End
(mag) Time Altitude Azimuth Time Altitude Azimuth Time Altitude Azimuth
COSMO-SKYMED 1 3.8 16:27:22 10° NE 16:30:46 22° E 16:34:09 10° SE
H-2A R/B 4.3 16:28:11 10° SSW 16:31:40 39° W 16:35:11 10° NNW
CORIOLIS 4.1 16:26:49 10° SSE 16:32:09 77° ENE 16:37:32 10° NNW
H-2A R/B 2.1 16:28:47 10° NNE 16:32:59 82° WNW 16:37:06 10° SSW
FengYun 1-2 T 4.3 16:27:43 10° SSE 16:33:17 63° ENE 16:38:51 10° N
Cosmos 1110 Rocket 4.1 16:29:19 10° S 16:34:26 56° ESE 16:39:32 10° NNE
NOSS 2-2 (C) 4.4 16:31:38 10° NW 16:36:51 68° NE 16:44:08 10° SE
Lacrosse 5 2.7 16:34:20 10° W 16:39:08 40° NNW 16:43:56 10° ENE
Timation 2 Rocket 4.1 16:32:50 10° NNW 16:39:26 76° ENE 16:46:14 10° SE
Cosmos 1825 Rocket 3.5 16:35:46 10° N 16:40:15 77° E 16:44:40 10° SSE
ADEOS Rocket 3.4 16:36:40 10° NNE 16:43:00 79° WNW 16:50:04 10° SSW
Envisat 4.0 16:38:38 10° S 16:43:36 53° W 16:48:35 10° NNW
Cosmos 292 Rocket 4.1 16:39:09 10° S 16:43:43 46° ESE 16:48:20 10° NE
Aureole 3 4.0 16:41:58 10° SE 16:44:21 20° E 16:46:40 10° NE
Meteor 2-21 Rocket 4.4 16:38:50 10° N 16:45:03 72° ENE 16:51:09 10° SSE
Okean O Rocket 2.0 16:41:18 10° S 16:45:39 69° WSW 16:50:00 10° NNW
FALCON 9 DEB 3.7 16:42:33 10° WNW 16:45:52 46° N 16:48:52 12° ENE
YAOGAN 1 3.6 16:44:08 10° ESE 16:47:39 25° ENE 16:51:11 10° N
ERBS 3.9 16:45:23 10° WNW 16:48:13 25° N 16:51:04 10° NE
USA 281 3.7 16:41:54 10° SSE 16:48:26 69° WSW 16:55:01 10° NNW
FALCON 9 DEB 4.0 16:45:46 10° SSW 16:48:40 31° SE 16:51:05 13° E
FALCON 9 DEB 3.8 16:49:58 10° SSW 16:52:55 35° SE 16:55:10 15° E
CZ-2C R/B 3.9 16:48:50 10° SE 16:53:58 35° ENE 16:58:58 10° N
Feng Yun 1-1 Rocket 4.4 16:48:06 10° SSE 16:53:58 72° ENE 16:59:54 10° NNW
SMAP 3.8 16:49:58 10° S 16:54:33 58° W 16:59:11 10° NNW
Cosmos 2219 3.2 16:48:58 10° NNW 16:54:44 66° ENE 17:00:27 10° SE
Cosmos 1455 4.0 16:54:48 10° ESE 16:56:10 13° E 16:56:10 13° E
Cosmos 1726 Rocket 3.5 16:53:23 10° S 16:57:40 61° E 17:02:01 10° NNE
Cosmos 1943 Rocket 4.4 16:54:20 10° W 16:58:11 19° NW 17:02:02 10° N
Cosmos 1758 Rocket 4.5 16:54:40 10° NNW 16:58:59 54° W 17:03:14 10° S
Cosmos 1553 Rocket 4.4 16:54:53 10° SSE 17:00:43 40° E 17:06:30 10° NNE
USA 307 3.1 16:57:05 10° WNW 17:01:21 60° NNE 17:04:41 16° E
Cosmos 2082 4.2 16:57:56 10° NNW 17:03:17 39° NE 17:08:38 10° ESE
Meteor 2-10 Rocket 4.4 16:59:19 10° SE 17:03:39 26° E 17:07:54 10° NNE
Cosmos 2228 3.0 17:00:30 10° S 17:04:45 86° W 17:09:04 10° N
FALCON 9 DEB 3.6 17:01:48 10° SW 17:04:52 41° SSE 17:06:44 20° E
CZ-4B R/B 1.2 17:01:44 10° NNE 17:05:00 86° W 17:08:09 10° SSW
Cosmos 1939 Rocket 2.7 17:01:32 10° SSE 17:05:28 65° ENE 17:09:21 10° N
USA 308 3.0 17:01:56 10° WNW 17:06:12 62° NNE 17:09:20 17° E
ATLAS 5 CENTAUR R/B 3.6 17:05:09 10° WNW 17:08:39 22° NNW 17:12:34 10° NNE
CZ-4 R/B 4.5 17:05:55 10° SSE 17:10:00 58° ENE 17:14:07 10° N
Helios 1A Rocket 3.0 17:08:36 10° SSE 17:12:38 56° ENE 17:16:40 10° N
Cosmos 1606 Rocket 3.8 17:08:56 10° SSW 17:13:19 75° WNW 17:17:45 10° N
GENESIS II 4.4 17:12:20 10° SW 17:16:23 75° NW 17:20:07 12° NE
FALCON 9 DEB 3.2 17:13:21 10° SW 17:16:29 52° SSE 17:17:56 27° E
ARGOS 4.0 17:13:09 11° ESE 17:17:28 30° ENE 17:22:08 10° N
Okean-O 2.6 17:14:45 10° SSE 17:19:06 58° ENE 17:23:28 10° N
SKYMED 2 3.5 17:14:48 10° NNE 17:19:08 62° E 17:23:26 10° S
Cosmos 1689 Rocket 2.0 17:17:33 10° NNE 17:20:25 56° ESE 17:23:15 10° S
SL-08 R/B 4.4 17:15:01 10° N 17:21:12 68° ENE 17:27:17 10° SSE
Cosmos 1656 3.9 17:17:02 10° S 17:22:22 49° ESE 17:27:48 10° NE
Cosmos 1745 Rocket 4.1 17:18:12 10° N 17:24:22 54° ENE 17:30:33 10° SSE
Cosmos 1400 Rocket 2.7 17:20:56 10° S 17:25:01 73° E 17:29:06 10° NNE
H-2A R/B 2.5 17:21:51 10° SE 17:26:57 44° ENE 17:32:06 10° N
PSLV R/B 3.9 17:23:16 10° NNE 17:27:26 62° ESE 17:31:32 10° S
Ariane Rocket 4.3 17:27:38 20° ENE 17:27:54 20° ENE 17:31:31 10° NNE
GEOS 3 Rocket 3.8 17:24:32 17° ESE 17:28:37 59° NE 17:33:56 10° NW
Cosmos 2227 Rocket 2.2 17:22:59 10° NNW 17:28:42 87° ENE 17:34:22 10° SSE
Cosmos 2058 3.0 17:25:11 10° N 17:29:11 48° ENE 17:33:09 10° SSE
CZ-4 R/B 1.2 17:25:35 10° SSE 17:29:26 65° ENE 17:33:16 10° N
Cosmos 1892 2.6 17:26:40 10° N 17:30:33 69° E 17:34:24 10° SSE
Cosmos 2263 Rocket 3.3 17:29:32 10° NNW 17:34:10 24° NE 17:35:33 22° ENE
Cosmos 1408 2.7 17:31:11 10° N 17:34:44 49° ENE 17:37:15 18° SSE
CSL-04 Rocket 3.8 17:29:54 10° SE 17:35:15 51° ENE 17:40:35 10° N
BREEZE-M R/B 3.4 17:28:08 10° W 17:36:03 84° S 17:37:09 37° E
NOSS 3-4 (A) 4.2 17:34:01 10° NW 17:40:27 45° NNE 17:44:11 26° E
NOSS 3-4 (C) 4.2 17:34:06 10° NW 17:40:33 45° NNE 17:44:16 26° E
CZ-4C R/B 3.7 17:35:13 10° NW 17:40:57 31° NNE 17:44:25 22° ENE
Meteor 2-1 Rocket 4.3 17:36:38 10° SSE 17:41:54 48° E 17:47:13 10° NNE
Cosmos 1300 4.1 17:39:51 10° SW 17:43:28 40° WNW 17:47:06 10° N
Cosmos 2058 Rocket 3.4 17:42:14 10° SSW 17:46:42 69° WNW 17:51:14 10° N
Cosmos 1697 Rocket 3.0 17:41:44 10° S 17:46:58 42° ESE 17:49:37 26° NE
SL-4 R/B 1.7 17:44:43 10° WNW 17:48:18 71° N 17:49:04 52° ENE
SeaSat 1 2.7 17:46:28 32° ESE 17:48:19 48° NE 17:53:05 10° NNW
CZ-2D R/B 3.8 17:44:40 10° S 17:48:26 57° W 17:52:13 10° NNW
Cosmos 1346 Rocket 2.6 17:45:29 10° N 17:49:29 84° ENE 17:53:29 10° SSE
CRYOSAT 2 4.3 17:46:36 10° NNE 17:51:25 56° E 17:56:10 10° S
NOSS 3-3 (A) 4.2 17:46:15 10° S 17:51:45 44° ESE 17:54:18 30° ENE
Cosmos 1825 2.3 17:48:02 10° N 17:51:38 51° ENE 17:51:38 51° ENE
NOSS 3-3 (C) 4.2 17:46:21 10° S 17:51:52 44° ESE 17:54:24 30° ENE
USA 305 2.8 17:47:48 10° WNW 17:52:07 87° SSW 17:53:27 44° ESE
Cosmos 1709 Rocket 4.1 17:47:55 10° N 17:54:09 52° ENE 17:59:42 13° SSE
USA 215 3.5 17:51:39 29° E 17:54:57 55° NNE 18:01:19 10° WNW
Cosmos 44 3.8 17:51:07 10° WSW 17:55:36 55° NW 17:59:04 18° NNE
Cosmos 1315 Rocket 2.8 17:52:18 10° S 17:56:11 55° E 17:56:19 55° E
SJ-11-01 4.1 17:53:43 11° SSE 17:58:10 74° ENE 18:02:51 10° N
USA 306 2.9 17:54:13 10° WNW 17:58:31 81° SSW 17:59:35 50° SE
BREEZE-M R/B 3.7 17:58:07 10° W 18:02:13 83° S 18:05:18 35° ESE
ATLAS 2AS CENTAUR R/B 3.2 17:55:15 10° NW 18:02:39 48° NNE 18:05:17 35° E
Cosmos 968 Rocket 4.0 17:58:48 10° NNW 18:03:57 59° WSW 18:09:01 10° S
SJ 16-02 3.8 18:04:00 10° NNE 18:04:08 10° NNE 18:04:08 10° NNE
HJ-1C 4.2 18:07:27 43° N 18:07:27 43° N 18:09:50 10° N
COSMO-SKYMED 1 3.6 18:03:00 10° N 18:07:10 45° WNW 18:11:18 10° SW
MOS 1 Rocket 3.2 18:03:22 10° NNE 18:08:01 67° ESE 18:12:56 10° S
Cosmos 2297 Rocket 3.4 18:03:05 10° NW 18:08:24 42° WSW 18:13:40 10° S
Cosmos 1076 Rocket 3.4 18:05:12 10° N 18:09:29 89° W 18:11:35 29° S
Cosmos 1980 Rocket 3.4 18:04:39 10° S 18:07:19 25° SSE 18:07:19 25° SSE
Cosmos 1777 Rocket 4.4 18:06:07 10° NNW 18:10:50 41° NE 18:10:50 41° NE
Cosmos 883 Rocket 4.4 18:05:38 10° S 18:11:39 59° E 18:17:40 10° NNE
Aureole 3 Rocket 4.5 18:08:30 10° SW 18:12:29 44° WNW 18:17:59 10° N
Cosmos 2315 Rocket 4.0 18:09:43 10° SSE 18:15:42 53° E 18:21:42 10° NNE
CSL-04 Debris 4.3 18:10:16 10° SSE 18:15:42 77° WSW 18:21:13 10° NNW
S3M 3.9 18:10:06 10° S 18:16:13 85° W 18:22:27 10° N
Lacrosse 5 2.6 18:18:14 10° WNW 18:23:00 39° N 18:23:30 38° NNE
FALCON 9 DEB 4.2 18:19:42 10° WNW 18:22:07 42° WNW 18:22:07 42° WNW
YAOGAN 1 3.8 18:19:27 10° S 18:23:33 42° W 18:27:42 10° NNW
ERBS 4.4 18:22:17 10° NW 18:24:02 21° NNW 18:24:02 21° NNW
Cosmos 2360 4.1 18:20:08 10° SSW 18:25:47 64° ESE 18:26:14 61° E
Cosmos 1812 Rocket 3.7 18:26:41 10° SSW 18:35:45 - N 18:30:36 68° SW
Cosmos 1455 3.0 18:28:11 10° SSW 18:31:13 47° WSW 18:31:13 47° WSW
CZ-2C R/B 4.3 18:28:09 10° S 18:33:41 46° W 18:39:07 10° NNW
Meteor 2-3 Rocket 4.0 18:29:56 10° N 18:34:44 52° NE 18:34:44 52° NE
USA 307 3.8 18:37:15 10° WNW 18:40:52 45° WSW 18:40:52 45° WSW
Meteor 2-10 Rocket 4.4 18:40:23 10° SW 18:45:28 47° WNW 18:50:25 10° N
USA 308 4.0 18:42:06 10° WNW 18:45:31 41° WSW 18:45:31 41° WSW
ATLAS 5 CENTAUR R/B 3.9 18:51:38 10° NW 18:55:01 18° N 18:55:01 18° N
ARGOS 3.9 18:54:41 26° SSW 18:57:30 51° W 19:02:49 10° NNW
Cosmos 2369 3.9 18:57:04 10° SW 19:02:45 68° WNW 19:03:11 65° NNW
CZ-4 R/B 4.5 19:03:07 10° WSW 19:04:53 13° W 19:06:39 10° WNW
Ariane Rocket 3.8 19:07:51 46° NNW 19:07:51 46° NNW 19:11:27 10° NNW
H-2A R/B 3.7 19:01:36 10° SSW 19:06:28 33° W 19:11:24 10° NNW
Cosmos 1844 Rocket 4.4 19:02:42 10° NNW 19:05:18 21° N 19:05:18 21° N
Cosmos 2263 Rocket 2.9 19:13:03 10° NNW 19:17:15 51° NW 19:17:15 51° NW
SeaSat 1 4.0 19:26:16 31° WSW 19:26:16 31° WSW 19:30:24 10° NW
CZ-4C R/B 3.1 19:23:44 10° NW 19:29:36 61° N 19:29:36 61° N
Cosmos 1697 Rocket 3.8 19:25:44 10° WSW 19:31:00 40° NW 19:31:25 39° NW
NOSS 3-4 (A) 4.0 19:24:53 10° NW 19:31:39 65° WSW 19:31:39 65° WSW
NOSS 3-4 (C) 4.0 19:25:00 10° NW 19:31:43 65° WSW 19:31:43 65° WSW
USA 215 3.6 19:39:00 62° WNW 19:39:00 62° WNW 19:44:25 10° WNW
SJ 16-02 4.4 19:41:04 10° NNW 19:41:07 10° NNW 19:41:07 10° NNW
Cosmos 1980 Rocket 4.5 19:48:10 10° SW 19:49:11 15° WSW 19:49:11 15° WSW
ATLAS 2AS CENTAUR R/B 3.4 19:46:34 10° NW 19:52:43 53° W 19:52:43 53° W
Lacrosse 5 4.4 20:01:23 10° NW 20:02:41 18° NW 20:02:41 18° NW
